Weather History for EGPN - February, 2013

Change the Weather History Date:

Wednesday, February 27, 2013

  Actual Average Record
Temperature  
Mean Temperature 35 °F -  
Max Temperature 46 °F 46 °F 53 °F (2009)
Min Temperature 24 °F 38 °F 24 °F (2013)
Degree Days  
Heating Degree Days 30    
Moisture  
Dew Point 33 °F    
Average Humidity 83    
Maximum Humidity 100    
Minimum Humidity 61    
Precipitation  
Precipitation 0.00 in - - ()
Sea Level Pressure  
Sea Level Pressure 30.62 in    
Wind  
Wind Speed 4 mph ()    
Max Wind Speed 7 mph    
Max Gust Speed -    
Visibility 5.0 miles    
Events      
Averages and records for this station are not official NWS values.
T = Trace of Precipitation, MM = Missing Value Source: Averaged Metar Reports

Daily Weather History Graph

Daily Weather History Graph

Search for Another Location

Airport or City:

Trip Planner

Search our weather history database for the weather conditions in past years. The results will help you decide how hot, cold, wet, or windy it might be!

Date:

Astronomy

Feb. 27, 2013 Rise Set
Actual Time 7:09 AM GMT 5:41 PM GMT
Civil Twilight 6:31 AM GMT 6:19 PM GMT
Nautical Twilight 5:47 AM GMT 7:03 PM GMT
Astronomical Twilight 5:03 AM GMT 7:47 PM GMT
Moon 8:21 PM GMT (2/27) 7:08 AM GMT (2/27)
Length of Visible Light 11h 48m
Length of Day
10h 32m
Full, 97% of the Moon is Illuminated
Feb 27
Full
Mar 4
Last Quarter
Mar 11
New
Mar 19
First Quarter
Mar 27
Full

Hourly Weather History & Observations

Time (GMT) Temp. Windchill Dew Point Humidity Pressure Visibility Wind Dir Wind Speed Gust Speed Precip Events Conditions
6:20 AM 26.6 °F 21.2 °F 26.6 °F 100% 30.66 in 6.2 mi WNW 4.6 mph - N/A   Partly Cloudy
6:50 AM 24.8 °F 17.9 °F 24.8 °F 100% 30.66 in 6.2 mi WNW 5.8 mph - N/A   Partly Cloudy
7:20 AM 28.4 °F 23.3 °F 28.4 °F 100% 30.66 in 6.2 mi WNW 4.6 mph - N/A   Partly Cloudy
7:50 AM 28.4 °F 24.6 °F 28.4 °F 100% 30.66 in - NW 3.5 mph - N/A   Clear
8:20 AM 30.2 °F 24.3 °F 30.2 °F 100% 30.66 in - WNW 5.8 mph - N/A   Clear
8:50 AM 30.2 °F 25.4 °F 30.2 °F 100% 30.66 in - West 4.6 mph - N/A   Clear
9:20 AM 32.0 °F 26.4 °F 32.0 °F 100% 30.66 in - West 5.8 mph - N/A   Clear
9:50 AM 33.8 °F 27.7 °F 32.0 °F 93% 30.66 in - West 6.9 mph - N/A   Clear
10:20 AM 35.6 °F 29.9 °F 33.8 °F 93% 30.66 in - West 6.9 mph - N/A   Clear
10:50 AM 37.4 °F 32.8 °F 35.6 °F 93% 30.66 in - West 5.8 mph - N/A   Clear
11:20 AM 41.0 °F 37.1 °F 37.4 °F 87% 30.66 in - WSW 5.8 mph - N/A   Clear
11:50 AM 42.8 °F 39.3 °F 37.4 °F 81% 30.63 in - WSW 5.8 mph - N/A   Clear
12:20 PM 42.8 °F 39.3 °F 37.4 °F 81% 30.63 in - SW 5.8 mph - N/A   Clear
12:50 PM 44.6 °F 42.2 °F 39.2 °F 81% 30.63 in - SW 4.6 mph - N/A   Clear
1:20 PM 44.6 °F 43.1 °F 37.4 °F 76% 30.63 in - WSW 3.5 mph - N/A   Clear
1:50 PM 46.4 °F 45.2 °F 39.2 °F 76% 30.60 in - SW 3.5 mph - N/A   Clear
2:20 PM 46.4 °F 45.2 °F 37.4 °F 71% 30.60 in - SW 3.5 mph - N/A   Clear
2:50 PM 44.6 °F - 37.4 °F 76% 30.60 in - South 1.2 mph - N/A   Clear
3:20 PM 46.4 °F - 33.8 °F 62% 30.60 in - Calm Calm - N/A   Clear
3:50 PM 44.6 °F - 32.0 °F 61% 30.60 in - Calm Calm - N/A   Clear
4:20 PM 44.6 °F - 35.6 °F 71% 30.60 in - South 1.2 mph - N/A   Clear
4:50 PM 44.6 °F 43.1 °F 35.6 °F 71% 30.60 in - East 3.5 mph - N/A   Clear
5:20 PM 42.8 °F 40.1 °F 35.6 °F 76% 30.57 in - East 4.6 mph - N/A   Clear
5:50 PM 41.0 °F 38.0 °F 33.8 °F 76% 30.60 in - ENE 4.6 mph - N/A   Clear
6:20 PM 41.0 °F 38.0 °F 32.0 °F 70% 30.60 in - ENE 4.6 mph - N/A   Clear
6:50 PM 41.0 °F 39.0 °F 33.8 °F 76% 30.60 in - East 3.5 mph - N/A   Clear
7:20 PM 39.2 °F - 32.0 °F 75% 30.60 in - Calm Calm - N/A   Clear
7:50 PM 37.4 °F - 32.0 °F 81% 30.60 in 4.3 mi Calm Calm - N/A   Partly Cloudy
8:20 PM 37.4 °F - 32.0 °F 81% 30.60 in 4.3 mi NW 1.2 mph - N/A   Partly Cloudy
8:50 PM 35.6 °F - 32.0 °F 87% 30.60 in 4.3 mi Calm Calm - N/A   Partly Cloudy
9:20 PM 35.6 °F - 32.0 °F 87% 30.60 in 4.3 mi Calm Calm - N/A   Partly Cloudy
9:50 PM 35.6 °F - 32.0 °F 87% 30.60 in 4.3 mi West 1.2 mph - N/A   Partly Cloudy